Home   Weather   Tananger   Past weeks

Flag for Norway Past Weather in Tananger, Norway — Yesterday and Last 2 Weeks

Now
45 °F

Broken clouds.


Feels Like: 40 °F
Forecast: 35 / 41 °F
Wind: 9 mph from Northwest

Location: Stavanger / Sola

Current Time: Jan 20, 2017 at 3:17:21 pm

Latest Report: Jan 20, 2017 at 2:20 pm


Visibility: N/A

Pressure: 30.45 "Hg

Humidity: 93%

Dew Point: 43 °F

Location of TanangerLocation

Past Weather in Tananger — Graph

°F

Tananger Temperature Yesterday

Maximum temperature yesterday: 45 °F (at 12:20 am)
Minimum temperature yesterday: 45 °F (at 12:20 am)
Average temperature yesterday: 45 °F

High & Low Weather Summary for the Past Weeks

 TemperatureHumidityPressure
High45 °F (Jan 6, 10:20 pm)100% (Jan 6, 4:20 pm)30.63 "Hg (Jan 6, 4:20 pm)
Low16 °F (Jan 16, 4:50 am)46% (Jan 5, 7:20 pm)28.53 "Hg (Jan 11, 9:20 am)
Average37 °F85%29.94 "Hg
* Reported Jan 5 1:20 pm — Jan 20 1:50 pm, Tananger, Weather by CustomWeather, © 2017

Note: Actual official high and low records may vary slightly from our data, if they occured in-between our weather recording intervals... More about our weather records

Advertising

Tananger Weather History for the Previous 24 Hours

Scroll right to see more
 ConditionsComfort  
Time TempWeatherWind HumidityBarometerVisibility
1:50 pm
Fri, Jan 20
45 °FBroken clouds.8 mph93%30.45 "HgN/A
1:20 pm45 °FBroken clouds.7 mph93%30.45 "HgN/A
12:50 pm45 °FPartly sunny.8 mph93%30.48 "HgN/A
12:20 pm45 °FBroken clouds.12 mph93%30.45 "HgN/A
11:50 am45 °FPartly sunny.10 mph93%30.48 "HgN/A
11:20 am45 °FPartly sunny.9 mph93%30.45 "HgN/A
10:50 am45 °FPartly sunny.12 mph93%30.45 "HgN/A
10:20 am45 °FPartly sunny.3 mph93%30.45 "HgN/A
9:50 am43 °FBroken clouds.2 mph93%30.45 "HgN/A
9:20 am43 °FPartly sunny.No wind93%30.45 "HgN/A
8:50 am43 °FPartly cloudy.No wind100%30.45 "HgN/A
8:20 am45 °FPartly cloudy.1 mph93%30.45 "Hg6 mi
7:50 am45 °FPartly cloudy.3 mph93%30.45 "Hg4 mi
7:20 am43 °FPartly cloudy.1 mph100%30.45 "Hg6 mi
6:50 am43 °FPassing clouds.2 mph93%30.45 "HgN/A
6:20 am45 °FPassing clouds.5 mph93%30.45 "HgN/A
5:50 am45 °FOvercast.6 mph93%30.45 "HgN/A
5:20 am45 °FPassing clouds.3 mph93%30.45 "HgN/A
3:20 am45 °FPassing clouds.7 mph93%30.45 "HgN/A
2:20 am45 °FOvercast.7 mph93%30.48 "HgN/A
1:50 am45 °FPartly cloudy.8 mph93%30.48 "HgN/A
1:20 am45 °FPartly cloudy.7 mph93%30.48 "HgN/A
12:50 am45 °FPassing clouds.8 mph93%30.48 "HgN/A
12:20 am45 °FPassing clouds.8 mph93%30.48 "HgN/A
11:50 pm
Thu, Jan 19
45 °FPassing clouds.7 mph93%30.48 "HgN/A
11:20 pm45 °FPartly cloudy.7 mph93%30.48 "HgN/A
10:50 pm45 °FPassing clouds.12 mph93%30.48 "HgN/A
10:20 pm45 °FPassing clouds.8 mph93%30.48 "HgN/A
9:50 pm45 °FPartly cloudy.9 mph93%30.48 "HgN/A
9:20 pm45 °FPartly cloudy.7 mph93%30.48 "HgN/A
8:50 pm45 °FPartly cloudy.8 mph93%30.48 "HgN/A
8:20 pm45 °FPassing clouds.8 mph93%30.48 "HgN/A
7:50 pm45 °FPassing clouds.8 mph93%30.45 "HgN/A
7:20 pm45 °FPassing clouds.9 mph93%30.45 "HgN/A
6:50 pm45 °FPassing clouds.9 mph93%30.45 "HgN/A
6:20 pm45 °FPartly cloudy.10 mph93%30.45 "HgN/A
5:50 pm45 °FPartly cloudy.9 mph93%30.45 "HgN/A
5:20 pm45 °FDrizzle. Fog.8 mph93%30.45 "Hg3 mi
4:50 pm45 °FFog.9 mph93%30.45 "Hg2 mi
4:20 pm45 °FDrizzle. Broken clouds.7 mph93%30.45 "Hg4 mi
3:50 pm45 °FDrizzle. Fog.5 mph93%30.45 "Hg2 mi
3:20 pm45 °FDrizzle. Fog.5 mph93%30.45 "Hg3 mi
Weather by CustomWeather, © 2017

See weather overviewHow to use our weather pages